EN

Hourly Weather Laczyn

Today, 1 August, Sunday

Time Temperature Precipitation Wind Pressure Humidity
00:00 +18°C° 0 mm 2 mps 734 mmHg 83%
01:00 +17°C° 0 mm 2 mps 734 mmHg 81%
02:00 +17°C° 0 mm 2 mps 734 mmHg 80%
03:00 +16°C° 0 mm 1 mps 734 mmHg 79%
04:00 +16°C° 0 mm 1 mps 734 mmHg 78%
05:00 +18°C° 0 mm 1 mps 734 mmHg 74%
06:00 +20°C° 0 mm 1 mps 734 mmHg 70%
07:00 +21°C° 0 mm 1 mps 733 mmHg 67%
08:00 +20°C° 0.4 mm 2 mps 733 mmHg 70%
09:00 +21°C° 0.4 mm 2 mps 733 mmHg 74%
10:00 +21°C° 0.4 mm 3 mps 733 mmHg 77%
11:00 +22°C° 0.5 mm 3 mps 732 mmHg 77%
12:00 +23°C° 0.5 mm 2 mps 732 mmHg 77%
13:00 +24°C° 0.5 mm 2 mps 732 mmHg 76%
14:00 +22°C° 1.3 mm 4 mps 731 mmHg 80%
15:00 +21°C° 1.3 mm 5 mps 731 mmHg 83%
16:00 +21°C° 1.3 mm 7 mps 730 mmHg 87%
17:00 +19°C° 0.9 mm 6 mps 731 mmHg 90%
18:00 +17°C° 0.9 mm 5 mps 731 mmHg 92%
19:00 +17°C° 0.9 mm 4 mps 731 mmHg 95%
20:00 +17°C° 0 mm 3 mps 732 mmHg 95%
21:00 +17°C° 0 mm 3 mps 732 mmHg 95%
22:00 +16°C° 0 mm 3 mps 732 mmHg 95%
23:00 +16°C° 0 mm 3 mps 732 mmHg 95%

Tomorrow, 2 August, Monday

Time Temperature Precipitation Wind Pressure Humidity
00:00 +16°C° 0 mm 3 mps 732 mmHg 95%
01:00 +16°C° 0 mm 3 mps 732 mmHg 95%
02:00 +16°C° 0 mm 3 mps 732 mmHg 94%
03:00 +14°C° 0 mm 3 mps 733 mmHg 94%
04:00 +14°C° 0 mm 4 mps 733 mmHg 94%
05:00 +14°C° 0.6 mm 3 mps 733 mmHg 94%
06:00 +14°C° 0.6 mm 3 mps 734 mmHg 95%
07:00 +14°C° 0.6 mm 3 mps 734 mmHg 95%
08:00 +14°C° 0.6 mm 3 mps 735 mmHg 95%
09:00 +14°C° 0.6 mm 3 mps 735 mmHg 94%
10:00 +14°C° 0.6 mm 3 mps 735 mmHg 94%
11:00 +17°C° 0.3 mm 4 mps 735 mmHg 85%
12:00 +19°C° 0.3 mm 4 mps 735 mmHg 76%
13:00 +21°C° 0.3 mm 5 mps 735 mmHg 68%
14:00 +20°C° 0.4 mm 5 mps 736 mmHg 69%
15:00 +20°C° 0.4 mm 5 mps 736 mmHg 70%
16:00 +20°C° 0.4 mm 5 mps 736 mmHg 72%
17:00 +19°C° 0.1 mm 4 mps 736 mmHg 77%
18:00 +18°C° 0.1 mm 4 mps 736 mmHg 81%
19:00 +16°C° 0.1 mm 3 mps 736 mmHg 86%
20:00 +16°C° 0 mm 3 mps 736 mmHg 87%
21:00 +15°C° 0 mm 2 mps 737 mmHg 88%
22:00 +15°C° 0 mm 2 mps 737 mmHg 90%
23:00 +15°C° 0 mm 2 mps 737 mmHg 90%

Day after tomorrow, 3 August, Tuesday

Time Temperature Precipitation Wind Pressure Humidity
00:00 +14°C° 0 mm 2 mps 737 mmHg 91%
01:00 +14°C° 0 mm 2 mps 738 mmHg 91%
02:00 +14°C° 0 mm 2 mps 738 mmHg 92%
03:00 +14°C° 0 mm 2 mps 738 mmHg 92%
04:00 +13°C° 0 mm 2 mps 738 mmHg 93%
05:00 +15°C° 0 mm 2 mps 738 mmHg 88%
06:00 +16°C° 0 mm 2 mps 738 mmHg 83%
07:00 +17°C° 0 mm 2 mps 739 mmHg 78%
08:00 +19°C° 0 mm 2 mps 739 mmHg 71%
09:00 +20°C° 0 mm 3 mps 739 mmHg 64%
10:00 +22°C° 0 mm 3 mps 739 mmHg 57%
11:00 +22°C° 0 mm 3 mps 739 mmHg 53%
12:00 +24°C° 0 mm 3 mps 738 mmHg 49%
13:00 +25°C° 0 mm 2 mps 738 mmHg 45%
14:00 +25°C° 0 mm 2 mps 738 mmHg 48%
15:00 +25°C° 0 mm 2 mps 738 mmHg 50%
16:00 +24°C° 0 mm 1 mps 737 mmHg 53%
17:00 +23°C° 0 mm 2 mps 737 mmHg 56%
18:00 +21°C° 0 mm 2 mps 737 mmHg 60%
19:00 +20°C° 0 mm 2 mps 737 mmHg 64%
20:00 +19°C° 0.2 mm 2 mps 737 mmHg 68%
21:00 +18°C° 0.2 mm 2 mps 737 mmHg 72%
22:00 +17°C° 0.2 mm 2 mps 737 mmHg 76%
23:00 +17°C° 0.1 mm 2 mps 737 mmHg 79%

4 August, Wednesday

Time Temperature Precipitation Wind Pressure Humidity
00:00 +16°C° 0.1 mm 2 mps 737 mmHg 83%
01:00 +15°C° 0.1 mm 2 mps 737 mmHg 86%
02:00 +15°C° 0 mm 2 mps 737 mmHg 87%
03:00 +15°C° 0 mm 2 mps 737 mmHg 87%
04:00 +15°C° 0 mm 2 mps 737 mmHg 88%
05:00 +16°C° 0.1 mm 2 mps 737 mmHg 85%
06:00 +17°C° 0.1 mm 2 mps 737 mmHg 82%
07:00 +18°C° 0.1 mm 2 mps 737 mmHg 80%
08:00 +19°C° 0 mm 2 mps 737 mmHg 76%
09:00 +20°C° 0 mm 2 mps 737 mmHg 73%
10:00 +21°C° 0 mm 2 mps 737 mmHg 70%
11:00 +21°C° 0 mm 2 mps 737 mmHg 67%
12:00 +23°C° 0 mm 2 mps 737 mmHg 65%
13:00 +23°C° 0 mm 2 mps 737 mmHg 62%
14:00 +24°C° 0.1 mm 2 mps 737 mmHg 61%
15:00 +24°C° 0.1 mm 2 mps 737 mmHg 59%
16:00 +25°C° 0.1 mm 2 mps 736 mmHg 57%
17:00 +24°C° 0 mm 2 mps 736 mmHg 62%
18:00 +21°C° 0 mm 2 mps 736 mmHg 68%
19:00 +21°C° 0 mm 1 mps 736 mmHg 73%
20:00 +19°C° 0 mm 2 mps 736 mmHg 75%
21:00 +18°C° 0 mm 2 mps 736 mmHg 78%
22:00 +18°C° 0 mm 2 mps 736 mmHg 80%
23:00 +17°C° 0 mm 2 mps 736 mmHg 80%

5 August, Thursday

Time Temperature Precipitation Wind Pressure Humidity
00:00 +17°C° 0 mm 2 mps 736 mmHg 80%
01:00 +17°C° 0 mm 2 mps 736 mmHg 80%
02:00 +17°C° 0.1 mm 2 mps 736 mmHg 81%
03:00 +17°C° 0.1 mm 2 mps 736 mmHg 83%
04:00 +16°C° 0.1 mm 3 mps 736 mmHg 85%
05:00 +16°C° 0.6 mm 2 mps 735 mmHg 88%
06:00 +16°C° 0.6 mm 2 mps 735 mmHg 91%
07:00 +15°C° 0.6 mm 2 mps 735 mmHg 95%
08:00 +15°C° 1.4 mm 2 mps 735 mmHg 95%
09:00 +15°C° 1.4 mm 2 mps 735 mmHg 95%
10:00 +15°C° 1.4 mm 2 mps 735 mmHg 95%
11:00 +15°C° 0.5 mm 2 mps 735 mmHg 95%
12:00 +15°C° 0.5 mm 1 mps 735 mmHg 94%
13:00 +15°C° 0.5 mm 1 mps 735 mmHg 93%
14:00 +16°C° 0.1 mm 1 mps 735 mmHg 89%
15:00 +18°C° 0.1 mm 1 mps 734 mmHg 86%
16:00 +18°C° 0.1 mm 1 mps 734 mmHg 83%
17:00 +18°C° 0 mm 1 mps 734 mmHg 85%
18:00 +16°C° 0 mm 1 mps 733 mmHg 87%
19:00 +16°C° 0 mm 1 mps 733 mmHg 89%
20:00 +15°C° 0 mm 1 mps 733 mmHg 91%
21:00 +15°C° 0 mm 2 mps 733 mmHg 92%
22:00 +14°C° 0 mm 2 mps 733 mmHg 94%
23:00 +14°C° 0 mm 2 mps 733 mmHg 94%

6 August, Friday

Time Temperature Precipitation Wind Pressure Humidity
00:00 +14°C° 0 mm 2 mps 733 mmHg 93%
01:00 +14°C° 0 mm 2 mps 733 mmHg 93%
02:00 +14°C° 0 mm 2 mps 733 mmHg 93%
03:00 +14°C° 0 mm 2 mps 733 mmHg 93%
04:00 +14°C° 0 mm 2 mps 733 mmHg 93%
05:00 +14°C° 0 mm 3 mps 733 mmHg 88%
06:00 +16°C° 0 mm 3 mps 733 mmHg 83%
07:00 +17°C° 0 mm 3 mps 734 mmHg 79%
08:00 +19°C° 0.3 mm 4 mps 734 mmHg 73%
09:00 +20°C° 0.3 mm 4 mps 734 mmHg 67%
10:00 +21°C° 0.3 mm 4 mps 734 mmHg 61%
11:00 +22°C° 0.4 mm 4 mps 734 mmHg 58%
12:00 +22°C° 0.4 mm 4 mps 733 mmHg 56%
13:00 +23°C° 0.4 mm 5 mps 733 mmHg 53%
14:00 +23°C° 0 mm 4 mps 733 mmHg 55%
15:00 +22°C° 0 mm 4 mps 733 mmHg 58%
16:00 +22°C° 0 mm 3 mps 733 mmHg 60%
17:00 +21°C° 0 mm 3 mps 733 mmHg 65%
18:00 +20°C° 0 mm 3 mps 733 mmHg 70%
19:00 +19°C° 0 mm 3 mps 733 mmHg 75%
20:00 +18°C° 0 mm 3 mps 733 mmHg 78%
21:00 +17°C° 0 mm 3 mps 733 mmHg 82%
22:00 +16°C° 0 mm 3 mps 734 mmHg 85%
23:00 +16°C° 0 mm 3 mps 734 mmHg 87%
Show more